Location: Mauries
(43.6188°N, 0.3322°W)
Time: 20:04:53
(UTC+00:00)

CENTAUR R/B - Pass Details

Date: 14 January 2026
Orbit: 629 x 1551 km, 63.4° (Epoch: 11 February)

Event Time Altitude Azimuth Distance (km) Brightness Sun altitude
Rises 06:44:59 0° 201° (SSW) 3,122 5.2 -8.6°
Reaches altitude 10° 06:47:09 10° 198° (SSW) 2,291 4.5 -8.2°
Maximum altitude 06:52:18 59° 119° (ESE) 1,010 3.0 -7.3°
Drops below altitude 10° 06:58:47 10° 42° (NE) 2,872 5.2 -6.3°
Sets 07:01:47 0° 39° (NE) 3,985 5.9 -5.8°
